This is the latest recevied weather packets stored in our database for station/object KB1RMA-4. If no packets are shown the sender has not sent any weather packets the latest 10 day(s).
| Time | Temp. | Humidity | Pressure | Rain* | Wind** | Luminosity | Snow |
|---|---|---|---|---|---|---|---|
| 1787587691 | 27.78° C | 42% | 1013.3 hPa | 0 mm | - | 675 W/m² | - |
| 1787587387 | 27.78° C | 42% | 1013.2 hPa | 0 mm | - | 674 W/m² | - |
| 1787587086 | 27.78° C | 42% | 1013.3 hPa | 0 mm | - | 682 W/m² | - |
| 1787586780 | 27.78° C | 43% | 1013.3 hPa | 0 mm | - | 686 W/m² | - |
| 1787586475 | 27.22° C | 44% | 1013.4 hPa | 0 mm | - | 681 W/m² | - |
| 1787586171 | 26.67° C | 46% | 1013.4 hPa | 0 mm | - | 679 W/m² | - |
| 1787585868 | 27.22° C | 47% | 1013.4 hPa | 0 mm | - | 681 W/m² | - |
| 1787585568 | 27.22° C | 47% | 1013.4 hPa | 0 mm | - | 688 W/m² | - |
| 1787585263 | 27.22° C | 46% | 1013.5 hPa | 0 mm | - | 697 W/m² | - |
| 1787584963 | 27.22° C | 49% | 1013.5 hPa | 0 mm | - | 695 W/m² | - |
| 1787584663 | 27.22° C | 47% | 1013.5 hPa | 0 mm | - | 704 W/m² | - |
| 1787584361 | 27.22° C | 46% | 1013.2 hPa | 0 mm | - | 696 W/m² | - |
| 1787584060 | 27.22° C | 49% | 1013.6 hPa | 0 mm | - | 662 W/m² | - |
| 1787583756 | 26.67° C | 50% | 1013.6 hPa | 0 mm | - | 652 W/m² | - |
| 1787583451 | 26.11° C | 51% | 1013.6 hPa | 0 mm | - | 691 W/m² | - |
| 1787583149 | 26.67° C | 52% | 1013.5 hPa | 0 mm | - | 681 W/m² | - |
| 1787582844 | 26.67° C | 51% | 1013.4 hPa | 0 mm | - | 691 W/m² | - |
| 1787582540 | 26.67° C | 51% | 1013.4 hPa | 0 mm | - | 694 W/m² | - |
| 1787582234 | 26.11° C | 57% | 1013.6 hPa | 0 mm | - | 702 W/m² | - |
| 1787581934 | 25.56° C | 55% | 1013.5 hPa | 0 mm | - | 706 W/m² | - |
| 1787581630 | 25.56° C | 60% | 1013.5 hPa | 0 mm | - | 688 W/m² | - |
| 1787581330 | 25° C | 60% | 1013.5 hPa | 0 mm | - | 678 W/m² | - |
| 1787581025 | 25° C | 63% | 1013.4 hPa | 0 mm | - | 680 W/m² | - |
| 1787580721 | 24.44° C | 65% | 1013.4 hPa | 0 mm | - | 691 W/m² | - |
| 1787580416 | 23.89° C | 69% | 1013.3 hPa | 0 mm | - | 681 W/m² | - |
* Rain latest hour (hover to see other rain measurements)
** Current wind speed in m/s (hover to see current wind gust speed)